AUA122 LDSP-LOWW

Flight info

Callsign AUA122
Flight time 0h 54m
Altitude 36000
Route UNIPA DCT OBUTI OBUTI2W
Aircraft A321/M-SDE3FGHIRWY/LB1

Departure

Time 2026-04-24 19:22
Airport Split Saint Jerome Airport (LDSP)

Arrival

Time 2026-04-24 20:16
Airport Vienna International Airport (LOWW)
Time Latitude Longitude Altitude Speed Heading
2026-04-24 18:54 43.53730 16.29868 68 ft 0 kts 115°
2026-04-24 18:56 43.53730 16.29867 68 ft 0 kts 115°
2026-04-24 19:16 43.53730 16.29869 41 ft 0 kts 115°
2026-04-24 19:16 43.53731 16.29881 68 ft 4 kts 79°
2026-04-24 19:17 43.53766 16.29882 62 ft 6 kts 346°
2026-04-24 19:17 43.53824 16.29912 66 ft 10 kts 63°
2026-04-24 19:17 43.53847 16.29963 58 ft 0 kts 57°
2026-04-24 19:18 43.53862 16.29993 64 ft 13 kts 54°
2026-04-24 19:18 43.53960 16.30079 64 ft 17 kts 16°
2026-04-24 19:18 43.54075 16.30140 61 ft 18 kts 34°
2026-04-24 19:18 43.54177 16.30309 53 ft 26 kts 52°
2026-04-24 19:19 43.54287 16.30507 53 ft 27 kts 54°
2026-04-24 19:19 43.54407 16.30719 53 ft 29 kts 52°
2026-04-24 19:19 43.54515 16.30922 51 ft 13 kts 57°
2026-04-24 19:19 43.54550 16.31019 53 ft 10 kts 79°
2026-04-24 19:20 43.54570 16.31028 53 ft 5 kts 256°
2026-04-24 19:20 43.54546 16.30973 49 ft 7 kts 233°
2026-04-24 19:20 43.54544 16.30970 49 ft 0 kts 233°
2026-04-24 19:21 43.54544 16.30969 49 ft 2 kts 233°
2026-04-24 19:21 43.54394 16.30695 53 ft 74 kts 232°
2026-04-24 19:21 43.53950 16.29894 69 ft 133 kts 232°
2026-04-24 19:22 43.53536 16.29149 124 ft 160 kts 233°
2026-04-24 19:22 43.52573 16.27529 951 ft 162 kts 234°
2026-04-24 19:22 43.51838 16.26343 1471 ft 169 kts 233°
2026-04-24 19:22 43.51037 16.25031 1809 ft 188 kts 234°
2026-04-24 19:23 43.50175 16.23582 2101 ft 204 kts 234°
2026-04-24 19:23 43.49241 16.21997 2337 ft 225 kts 233°
2026-04-24 19:23 43.48181 16.20242 2549 ft 253 kts 232°
2026-04-24 19:23 43.47058 16.18272 3130 ft 266 kts 242°
2026-04-24 19:24 43.46520 16.15858 3916 ft 266 kts 270°
2026-04-24 19:24 43.46813 16.13367 4767 ft 266 kts 293°
2026-04-24 19:24 43.47788 16.11220 5530 ft 266 kts 318°
2026-04-24 19:24 43.49234 16.09630 6396 ft 267 kts 325°
2026-04-24 19:25 43.50724 16.08092 7235 ft 269 kts 325°
2026-04-24 19:25 43.52231 16.06535 8037 ft 272 kts 324°
2026-04-24 19:25 43.53760 16.04956 8759 ft 277 kts 325°
2026-04-24 19:25 43.55438 16.03653 8992 ft 277 kts 340°
2026-04-24 19:26 43.57313 16.03088 9137 ft 279 kts 358°
2026-04-24 19:26 43.59247 16.03314 9963 ft 281 kts 11°
2026-04-24 19:26 43.61195 16.03901 10416 ft 296 kts 12°
2026-04-24 19:26 43.63281 16.04531 10617 ft 318 kts 12°
2026-04-24 19:27 43.65474 16.05197 11157 ft 326 kts 12°
2026-04-24 19:27 43.67672 16.05868 11837 ft 329 kts 12°
2026-04-24 19:27 43.69912 16.06588 12533 ft 333 kts 16°
2026-04-24 19:27 43.72058 16.07821 13246 ft 337 kts 28°
2026-04-24 19:28 43.73977 16.09698 13955 ft 341 kts 40°
2026-04-24 19:28 43.75701 16.11972 14593 ft 344 kts 43°
2026-04-24 19:28 43.77433 16.14273 15216 ft 347 kts 43°
2026-04-24 19:28 43.79183 16.16592 15831 ft 350 kts 43°
2026-04-24 19:29 43.82736 16.21296 17055 ft 357 kts 43°
2026-04-24 19:29 43.84533 16.23682 17660 ft 359 kts 44°
2026-04-24 19:29 43.86347 16.26093 18233 ft 363 kts 44°
2026-04-24 19:30 43.88171 16.28522 18743 ft 366 kts 44°
2026-04-24 19:30 43.90012 16.30973 19247 ft 368 kts 44°
2026-04-24 19:30 43.91865 16.33444 19757 ft 370 kts 44°
2026-04-24 19:30 43.93729 16.35935 20245 ft 373 kts 44°
2026-04-24 19:31 43.95606 16.38446 20742 ft 375 kts 44°
2026-04-24 19:31 43.97489 16.40968 21216 ft 378 kts 44°
2026-04-24 19:31 43.99395 16.43495 21665 ft 380 kts 41°
2026-04-24 19:31 44.01553 16.45621 22095 ft 382 kts 29°
2026-04-24 19:32 44.04010 16.47071 22529 ft 385 kts 17°
2026-04-24 19:32 44.06649 16.47778 22961 ft 389 kts
2026-04-24 19:32 44.09369 16.47736 23385 ft 393 kts 358°
2026-04-24 19:32 44.12102 16.47493 23784 ft 395 kts 358°
2026-04-24 19:33 44.14852 16.47252 24156 ft 397 kts 358°
2026-04-24 19:33 44.17621 16.47016 24530 ft 399 kts 358°
2026-04-24 19:33 44.20395 16.46784 24906 ft 401 kts 358°
2026-04-24 19:33 44.23188 16.46551 25288 ft 403 kts 358°
2026-04-24 19:34 44.25989 16.46314 25662 ft 405 kts 358°
2026-04-24 19:34 44.28813 16.46072 26051 ft 407 kts 358°
2026-04-24 19:34 44.31640 16.45828 26437 ft 409 kts 358°
2026-04-24 19:34 44.34491 16.45582 26817 ft 411 kts 358°
2026-04-24 19:35 44.37352 16.45336 27181 ft 413 kts 358°
2026-04-24 19:35 44.40195 16.45093 27538 ft 415 kts 358°
2026-04-24 19:35 44.43122 16.44840 27900 ft 417 kts 358°
2026-04-24 19:35 44.45989 16.44592 28239 ft 419 kts 358°
2026-04-24 19:36 44.48946 16.44334 28595 ft 421 kts 358°
2026-04-24 19:36 44.51842 16.44077 28929 ft 423 kts 358°
2026-04-24 19:36 44.54787 16.43815 29252 ft 426 kts 358°
2026-04-24 19:36 44.57749 16.43556 29586 ft 428 kts 358°
2026-04-24 19:37 44.60727 16.43298 29906 ft 430 kts 358°
2026-04-24 19:37 44.63721 16.43041 30198 ft 432 kts 358°
2026-04-24 19:37 44.66725 16.42784 30458 ft 434 kts 358°
2026-04-24 19:37 44.69746 16.42525 30733 ft 435 kts 358°
2026-04-24 19:38 44.72777 16.42264 31004 ft 437 kts 358°
2026-04-24 19:38 44.75816 16.41998 31267 ft 438 kts 358°
2026-04-24 19:38 44.78865 16.41728 31553 ft 438 kts 358°
2026-04-24 19:38 44.81902 16.41460 31925 ft 437 kts 358°
2026-04-24 19:39 44.84927 16.41195 32284 ft 435 kts 358°
2026-04-24 19:39 44.87950 16.40927 32664 ft 434 kts 358°
2026-04-24 19:39 44.90954 16.40657 33036 ft 432 kts 358°
2026-04-24 19:39 44.93952 16.40391 33405 ft 431 kts 358°
2026-04-24 19:40 44.96934 16.40127 33765 ft 429 kts 359°
2026-04-24 19:40 44.99911 16.39866 34135 ft 428 kts 359°
2026-04-24 19:40 45.02874 16.39609 34445 ft 426 kts 359°
2026-04-24 19:40 45.05830 16.39351 34753 ft 425 kts 359°
2026-04-24 19:41 45.07788 16.39181 34951 ft 424 kts 359°
2026-04-24 19:41 45.10766 16.38918 35254 ft 423 kts 359°
2026-04-24 19:41 45.13660 16.38661 35550 ft 422 kts 359°
2026-04-24 19:41 45.16581 16.38400 35838 ft 421 kts 359°
2026-04-24 19:42 45.19504 16.38141 36009 ft 420 kts 359°
2026-04-24 19:42 45.25276 16.37629 36048 ft 413 kts 359°
2026-04-24 19:43 45.30996 16.37119 36051 ft 411 kts 359°
2026-04-24 19:43 45.36706 16.36612 36037 ft 411 kts 359°
2026-04-24 19:44 45.42408 16.36100 36048 ft 410 kts 359°
2026-04-24 19:44 45.48111 16.35587 36039 ft 410 kts 359°
2026-04-24 19:45 45.53807 16.35082 36049 ft 410 kts 359°
2026-04-24 19:45 45.59508 16.34569 36051 ft 410 kts 358°
2026-04-24 19:46 45.65203 16.34048 36056 ft 410 kts 358°
2026-04-24 19:46 45.70902 16.33521 36042 ft 410 kts 358°
2026-04-24 19:47 45.76598 16.33018 36055 ft 410 kts 358°
2026-04-24 19:47 45.82288 16.32508 36051 ft 409 kts 358°
2026-04-24 19:48 45.87972 16.31984 36049 ft 409 kts 358°
2026-04-24 19:48 45.96500 16.31206 36046 ft 409 kts 358°
2026-04-24 19:49 46.07855 16.30178 36045 ft 408 kts 358°
2026-04-24 19:50 46.19197 16.29129 36042 ft 408 kts 358°
2026-04-24 19:51 46.27710 16.28342 35815 ft 408 kts 358°
2026-04-24 19:52 46.33343 16.27819 35318 ft 409 kts 358°
2026-04-24 19:52 46.36223 16.27552 35065 ft 409 kts 358°
2026-04-24 19:52 46.39021 16.27137 34824 ft 411 kts 352°
2026-04-24 19:52 46.41842 16.26473 34248 ft 411 kts 352°
2026-04-24 19:53 46.44671 16.25802 33455 ft 413 kts 352°
2026-04-24 19:53 46.47518 16.25123 32626 ft 416 kts 352°
2026-04-24 19:53 46.53196 16.23773 31426 ft 411 kts 351°
2026-04-24 19:54 46.56003 16.23100 30848 ft 408 kts 351°
2026-04-24 19:54 46.58798 16.22438 30273 ft 405 kts 351°
2026-04-24 19:54 46.61574 16.21786 29629 ft 403 kts 351°
2026-04-24 19:54 46.64326 16.21138 29010 ft 399 kts 351°
2026-04-24 19:55 46.66138 16.20709 28618 ft 397 kts 351°
2026-04-24 19:55 46.69764 16.19833 27813 ft 392 kts 351°
2026-04-24 19:55 46.72442 16.19190 27411 ft 388 kts 351°
2026-04-24 19:55 46.75110 16.18555 27155 ft 389 kts 351°
2026-04-24 19:56 46.77781 16.17923 26901 ft 389 kts 351°
2026-04-24 19:56 46.80444 16.17292 26648 ft 388 kts 350°
2026-04-24 19:56 46.83109 16.16657 26396 ft 387 kts 350°
2026-04-24 19:56 46.85759 16.16023 26148 ft 386 kts 350°
2026-04-24 19:57 46.88407 16.15386 25902 ft 385 kts 350°
2026-04-24 19:57 46.91046 16.14749 25661 ft 384 kts 350°
2026-04-24 19:57 46.93678 16.14107 25416 ft 383 kts 350°
2026-04-24 19:57 46.96268 16.13476 25182 ft 382 kts 349°
2026-04-24 19:58 46.98891 16.12840 24942 ft 381 kts 350°
2026-04-24 19:58 47.01501 16.12212 24707 ft 377 kts 350°
2026-04-24 19:58 47.04066 16.11595 24312 ft 370 kts 349°
2026-04-24 19:58 47.06587 16.10986 23875 ft 365 kts 349°
2026-04-24 19:59 47.09081 16.10381 23381 ft 361 kts 349°
2026-04-24 19:59 47.11537 16.09787 22922 ft 355 kts 350°
2026-04-24 19:59 47.13957 16.09207 22480 ft 350 kts 350°
2026-04-24 19:59 47.16344 16.08634 22045 ft 344 kts 350°
2026-04-24 20:00 47.18687 16.08068 21605 ft 340 kts 350°
2026-04-24 20:00 47.21007 16.07502 21171 ft 335 kts 350°
2026-04-24 20:00 47.23293 16.06940 20724 ft 331 kts 350°
2026-04-24 20:00 47.25558 16.06387 20287 ft 328 kts 350°
2026-04-24 20:01 47.27793 16.05843 19861 ft 324 kts 350°
2026-04-24 20:01 47.30005 16.05304 19433 ft 321 kts 350°
2026-04-24 20:01 47.32198 16.04772 19008 ft 318 kts 350°
2026-04-24 20:01 47.34371 16.04244 18583 ft 315 kts 351°
2026-04-24 20:02 47.35810 16.04043 18296 ft 313 kts 358°
2026-04-24 20:02 47.38691 16.04530 17760 ft 318 kts 13°
2026-04-24 20:02 47.40854 16.05555 17386 ft 330 kts 17°
2026-04-24 20:02 47.43040 16.06635 17008 ft 332 kts 16°
2026-04-24 20:03 47.45232 16.07716 16631 ft 332 kts 16°
2026-04-24 20:03 47.47417 16.08794 16251 ft 330 kts 16°
2026-04-24 20:03 47.49594 16.09870 15877 ft 329 kts 16°
2026-04-24 20:03 47.51763 16.10945 15503 ft 328 kts 16°
2026-04-24 20:04 47.53924 16.12022 15127 ft 327 kts 16°
2026-04-24 20:04 47.56043 16.13082 14764 ft 325 kts 16°
2026-04-24 20:04 47.58185 16.14153 14395 ft 324 kts 16°
2026-04-24 20:04 47.60317 16.15220 14027 ft 322 kts 16°
2026-04-24 20:05 47.62437 16.16278 13632 ft 321 kts 16°
2026-04-24 20:05 47.64541 16.17329 13259 ft 318 kts 16°
2026-04-24 20:05 47.66632 16.18374 12897 ft 316 kts 15°
2026-04-24 20:05 47.68704 16.19413 12539 ft 313 kts 15°
2026-04-24 20:06 47.70761 16.20444 12183 ft 311 kts 15°
2026-04-24 20:06 47.72801 16.21467 11828 ft 308 kts 15°
2026-04-24 20:06 47.74741 16.22819 11474 ft 310 kts 30°
2026-04-24 20:06 47.76388 16.24900 11128 ft 314 kts 46°
2026-04-24 20:07 47.77216 16.26733 10877 ft 318 kts 58°
2026-04-24 20:07 47.78165 16.30880 10395 ft 322 kts 70°
2026-04-24 20:07 47.78766 16.34036 10176 ft 310 kts 69°
2026-04-24 20:07 47.79352 16.37064 9928 ft 301 kts 69°
2026-04-24 20:08 47.79932 16.40022 9694 ft 295 kts 69°
2026-04-24 20:08 47.80513 16.42953 9502 ft 296 kts 69°
2026-04-24 20:08 47.81097 16.45885 9053 ft 295 kts 69°
2026-04-24 20:08 47.81675 16.48799 8607 ft 293 kts 69°
2026-04-24 20:09 47.82245 16.51701 8180 ft 291 kts 69°
2026-04-24 20:09 47.82998 16.54447 7750 ft 282 kts 52°
2026-04-24 20:09 47.84154 16.56375 7368 ft 272 kts 33°
2026-04-24 20:09 47.85754 16.57818 6900 ft 269 kts 24°
2026-04-24 20:10 47.87399 16.59163 6401 ft 270 kts 24°
2026-04-24 20:10 47.89044 16.60504 5890 ft 269 kts 24°
2026-04-24 20:10 47.90689 16.61844 5382 ft 269 kts 24°
2026-04-24 20:10 47.92331 16.63183 4882 ft 269 kts 25°
2026-04-24 20:11 47.93967 16.64519 4372 ft 268 kts 25°
2026-04-24 20:11 47.95594 16.65853 3857 ft 263 kts 25°
2026-04-24 20:11 47.97149 16.67134 3360 ft 249 kts 25°
2026-04-24 20:11 47.98598 16.68331 2853 ft 227 kts 26°
2026-04-24 20:12 47.99925 16.69428 2357 ft 210 kts 26°
2026-04-24 20:12 48.01027 16.70035 2265 ft 186 kts
2026-04-24 20:12 48.02540 16.70033 2073 ft 247 kts 354°
2026-04-24 20:12 48.04172 16.69783 2003 ft 219 kts 353°
2026-04-24 20:13 48.05580 16.69462 2018 ft 193 kts 344°
2026-04-24 20:13 48.06686 16.68698 2040 ft 164 kts 327°
2026-04-24 20:13 48.07480 16.67637 2013 ft 146 kts 313°
2026-04-24 20:13 48.08017 16.66387 1889 ft 138 kts 298°
2026-04-24 20:14 48.08436 16.65108 1737 ft 136 kts 299°
2026-04-24 20:14 48.08850 16.63853 1574 ft 134 kts 298°
2026-04-24 20:14 48.09258 16.62592 1369 ft 134 kts 298°
2026-04-24 20:14 48.09682 16.61352 1199 ft 132 kts 298°
2026-04-24 20:15 48.10076 16.60141 1008 ft 129 kts 294°
2026-04-24 20:15 48.10470 16.58890 830 ft 135 kts 297°
2026-04-24 20:15 48.10873 16.57653 665 ft 132 kts 295°
2026-04-24 20:15 48.11261 16.56469 615 ft 107 kts 296°
2026-04-24 20:16 48.11495 16.55759 614 ft 54 kts 296°
2026-04-24 20:16 48.11641 16.55376 619 ft 39 kts 311°
2026-04-24 20:16 48.11781 16.55176 610 ft 19 kts 322°
2026-04-24 20:16 48.11875 16.55179 624 ft 11 kts 70°
2026-04-24 20:17 48.11857 16.55283 621 ft 11 kts 115°
2026-04-24 20:17 48.11757 16.55594 621 ft 17 kts 116°
2026-04-24 20:17 48.11705 16.55752 617 ft 17 kts 116°
2026-04-24 20:18 48.11672 16.55856 623 ft 17 kts 115°
2026-04-24 20:18 48.11604 16.56063 610 ft 16 kts 116°
2026-04-24 20:18 48.11614 16.56194 621 ft 13 kts 44°
2026-04-24 20:18 48.11690 16.56267 616 ft 13 kts 27°
2026-04-24 20:19 48.11755 16.56346 621 ft 11 kts 78°
2026-04-24 20:19 48.11730 16.56454 618 ft 11 kts 116°
2026-04-24 20:19 48.11699 16.56549 619 ft 8 kts 115°
2026-04-24 20:19 48.11715 16.56592 615 ft 5 kts 15°
2026-04-24 20:20 48.11750 16.56617 620 ft 6 kts 25°
2026-04-24 20:20 48.11762 16.56626 613 ft 0 kts 26°